This is the latest recevied weather packets stored in our database for station/object WX7FGZ-6. If no packets are shown the sender has not sent any weather packets the latest 10 day(s).
| Time | Temp. | Humidity | Pressure | Rain* | Wind** | Luminosity | Snow |
|---|---|---|---|---|---|---|---|
| 1777506381 | 7.22° C | 28% | 1020.8 hPa | 0 mm | - | - | - |
| 1777506081 | 7.78° C | 27% | 1020.7 hPa | 0 mm | - | - | - |
| 1777505781 | 8.33° C | 29% | 1020.5 hPa | 0 mm | - | - | - |
| 1777505277 | 7.78° C | 27% | 1020.7 hPa | 0 mm | - | - | - |
| 1777504977 | 7.78° C | 27% | 1020.7 hPa | 0 mm | - | - | - |
| 1777504721 | 7.78° C | 29% | 1020.8 hPa | 0 mm | - | - | - |
| 1777504677 | 7.78° C | 29% | 1020.6 hPa | 0 mm | - | - | - |
| 1777504377 | 7.78° C | 29% | 1020.8 hPa | 0 mm | - | - | - |
| 1777504077 | 8.33° C | 27% | 1020.4 hPa | 0 mm | - | - | - |
| 1777503777 | 8.33° C | 28% | 1020.3 hPa | 0 mm | - | - | - |
| 1777503477 | 8.89° C | 27% | 1020.5 hPa | 0 mm | - | - | - |
| 1777503178 | 8.33° C | 26% | 1020.7 hPa | 0 mm | - | - | - |
| 1777502878 | 8.33° C | 30% | 1020.7 hPa | 0 mm | - | - | - |
| 1777502578 | 8.33° C | 28% | 1020.7 hPa | 0 mm | - | - | - |
| 1777502278 | 8.89° C | 27% | 1020.5 hPa | 0 mm | - | - | - |
| 1777501978 | 8.89° C | 24% | 1020.7 hPa | 0 mm | - | - | - |
| 1777501678 | 8.89° C | 30% | 1020.8 hPa | 0 mm | - | - | - |
| 1777501219 | 7.78° C | 27% | 1020.8 hPa | 0 mm | - | - | - |
| 1777500919 | 7.78° C | 26% | 1020.7 hPa | 0 mm | - | - | - |
| 1777500619 | 8.33° C | 27% | 1020.7 hPa | 0 mm | - | - | - |
| 1777500319 | 8.33° C | 25% | 1020.7 hPa | 0 mm | - | - | - |
| 1777500019 | 9.44° C | 24% | 1020.9 hPa | 0 mm | - | - | - |
| 1777499929 | 9.44° C | 26% | 1021 hPa | 0 mm | - | - | - |
| 1777499719 | 9.44° C | 26% | 1021 hPa | 0 mm | - | - | - |
| 1777499419 | 9.44° C | 23% | 1021.1 hPa | 0 mm | - | - | - |
* Rain latest hour (hover to see other rain measurements)
** Current wind speed in m/s (hover to see current wind gust speed)